User: anonymous   Login
Location: Unspecified
(40.9447°N, 78.9903°W)
Time: 19:19:14
(UTC-05:00)
Language:

Hubble Space Telescope - Orbit

View from above orbital plane
View from above orbital plane
View from above satellite
View from above satellite

Ground track
Ground track

The orbit data is extracted from the following two-line orbital elements,

1 20580U 90037B   19049.86104758  .00000424  00000-0  14906-4 0  9990
2 20580  28.4692 284.2871 0002537 274.6604 183.4736 15.09175067382765
Epoch (UTC): 18 February 2019 20:39:54
Eccentricity: 0.0002537
inclination: 28.4692°
perigee height: 537 km
apogee height: 540 km
right ascension of ascending node: 284.2871°
argument of perigee: 274.6604°
revolutions per day: 15.09175067
mean anomaly at epoch: 183.4736°
orbit number at epoch: 38276

The dashed part of the orbit path shows where the satellite is in the earth's shadow,  

DLR